Deming, NM

11:56 AM MDT on June 27, 2017 (GMT -0600)
Deming Municipal

Weather History for KDMN - April, 2013

Change the Weather History Date:

Saturday, April 6, 2013

  Actual Average Record
Temperature  
Mean Temperature 62 °F 56 °F  
Max Temperature 80 °F 74 °F 88 °F (1959)
Min Temperature 44 °F 39 °F 26 °F (1966)
Degree Days  
Heating Degree Days 2    
Growing Degree Days 12 (Base 50)    
Moisture  
Dew Point 20 °F    
Average Humidity 25    
Maximum Humidity 40    
Minimum Humidity 9    
Precipitation  
Precipitation 0.00 in 0.01 in 0.38 in (1951)
Month to date precipitation 0.00 0.06  
Year to date precipitation 0.48 1.68  
Sea Level Pressure  
Sea Level Pressure 29.81 in    
Wind  
Wind Speed 11 mph (West)    
Max Wind Speed 25 mph    
Max Gust Speed 36 mph    
Visibility 10 miles    
Events      
T = Trace of Precipitation, MM = Missing Value Source: NWS Daily Summary

Daily Weather History Graph

Daily Weather History Graph

Search for Another Location

Airport or City:

Trip Planner

Search our weather history database for the weather conditions in past years. The results will help you decide how hot, cold, wet, or windy it might be!

Date:

Astronomy

Apr. 06, 2013 Rise Set
Actual Time 6:52 AM MDT 7:34 PM MDT
Civil Twilight 6:27 AM MDT 7:59 PM MDT
Nautical Twilight 5:58 AM MDT 8:28 PM MDT
Astronomical Twilight 5:28 AM MDT 8:58 PM MDT
Moon 4:25 AM MDT (4/6) 4:16 PM MDT (4/6)
Length of Visible Light 13h 31m
Length of Day
12h 42m
Waning Crescent, 14% of the Moon is Illuminated
Apr 6
Waning Crescent
Apr 10
New
Apr 18
First Quarter
Apr 25
Full
May 2
Last Quarter

Hourly Weather History & Observations

Time (MDT) Temp. Windchill Dew Point Humidity Pressure Visibility Wind Dir Wind Speed Gust Speed Precip Events Conditions
12:53 AM 57.9 °F - 21.9 °F 25% 29.81 in 10.0 mi WNW 5.8 mph - N/A   Clear
1:53 AM 53.1 °F - 21.0 °F 29% 29.82 in 10.0 mi SSW 4.6 mph - N/A   Clear
2:53 AM 52.0 °F - 21.9 °F 31% 29.81 in 10.0 mi WSW 5.8 mph - N/A   Clear
3:53 AM 50.0 °F - 21.0 °F 32% 29.82 in 10.0 mi South 4.6 mph - N/A   Clear
4:53 AM 48.9 °F - 23.0 °F 36% 29.83 in 10.0 mi West 5.8 mph - N/A   Clear
5:53 AM 46.0 °F 44.8 °F 21.0 °F 37% 29.84 in 10.0 mi West 3.5 mph - N/A   Clear
6:53 AM 45.0 °F - 21.0 °F 39% 29.86 in 10.0 mi Calm Calm - N/A   Clear
7:53 AM 46.0 °F 43.9 °F 23.0 °F 40% 29.90 in 10.0 mi SW 4.6 mph - N/A   Clear
8:53 AM 57.0 °F - 26.1 °F 30% 29.88 in 10.0 mi WSW 4.6 mph - N/A   Clear
9:53 AM 66.9 °F - 27.0 °F 22% 29.86 in 10.0 mi WSW 12.7 mph 17.3 mph N/A   Clear
10:53 AM 70.0 °F - 25.0 °F 18% 29.86 in 10.0 mi West 15.0 mph 24.2 mph N/A   Clear
11:53 AM 73.0 °F - 23.0 °F 15% 29.86 in 10.0 mi West 15.0 mph 24.2 mph N/A   Clear
12:53 PM 77.0 °F - 21.0 °F 12% 29.83 in 10.0 mi West 18.4 mph 25.3 mph N/A   Clear
1:53 PM 78.1 °F - 16.0 °F 10% 29.81 in 10.0 mi West 20.7 mph 28.8 mph N/A   Clear
2:53 PM 79.0 °F - 16.0 °F 9% 29.78 in 9.0 mi WSW 20.7 mph 29.9 mph N/A   Clear
3:53 PM 79.0 °F - 16.0 °F 9% 29.76 in 10.0 mi West 19.6 mph 27.6 mph N/A   Clear
4:53 PM 80.1 °F - 17.1 °F 9% 29.74 in 8.0 mi West 24.2 mph 35.7 mph N/A   Clear
5:53 PM 79.0 °F - 19.0 °F 11% 29.74 in 10.0 mi West 18.4 mph 27.6 mph N/A   Clear
6:53 PM 75.9 °F - 18.0 °F 11% 29.74 in 10.0 mi West 15.0 mph 25.3 mph N/A   Clear
7:53 PM 72.0 °F - 18.0 °F 13% 29.75 in 10.0 mi WNW 9.2 mph - N/A   Clear
8:53 PM 68.0 °F - 17.1 °F 14% 29.75 in 10.0 mi West 9.2 mph - N/A   Clear
9:53 PM 64.0 °F - 16.0 °F 16% 29.75 in 10.0 mi West 8.1 mph - N/A   Clear
10:53 PM 60.1 °F - 17.1 °F 19% 29.76 in 10.0 mi West 6.9 mph - N/A   Clear
11:53 PM 57.9 °F - 17.1 °F 20% 29.76 in 10.0 mi West 8.1 mph - N/A   Clear